Location: *
(49.4547°N, 7.9131°E)
Time: 04:20:29
(UTC+00:00)

CZ-4C R/B - Pass Details

Date: 22 September 2019
Orbit: 654 x 1348 km, 63.4° (Epoch: 14 October)

Event Time Altitude Azimuth Distance (km) Brightness Sun altitude
Rises 22:48:48 0° 316° (NW) 3,797 6.2 -39.9°
Reaches altitude 10° 22:51:17 10° 314° (NW) 2,935 5.5 -40.0°
Enters shadow 22:54:59 35° 306° (NW) 1,781 4.0 -40.1°
